User: anonymous   Login
Location: Bremen
(53.0793°N, 8.8017°E)
Time: 21:51:08
(UTC+01:00)
Language:

Transit 2A Rocket - Orbit

View from above orbital plane
View from above orbital plane
View from above satellite
View from above satellite

Ground track
Ground track

The orbit data is extracted from the following two-line orbital elements,

1 00047U 60007C   21340.20206460  .00000013  00000-0  27792-4 0  9999
2 00047  66.6640 159.6999 0234690 270.5453  86.8765 14.42199823212074
Epoch (UTC): 06 December 2021 04:50:58
Eccentricity: 0.0234690
inclination: 66.6640°
perigee height: 584 km
apogee height: 918 km
right ascension of ascending node: 159.6999°
argument of perigee: 270.5453°
revolutions per day: 14.42199823
mean anomaly at epoch: 86.8765°
orbit number at epoch: 21207

The dashed part of the orbit path shows where the satellite is in the earth's shadow,  

DLR